Theta_e
336 336 336 335 334 334 334 334 334 334 334 334 334 334 334 334 334 334 334 334 333 333 332 332 332 331 330 331 332 331 330 329 328 326 325 327 330 331 330 331 331 331 331 331 331 331 332 332 331 331 331 331 330 330 330 330 329 330 330 329 329 329 328
336 336 336 336 335 335 335 335 335 334 334 334 333 333 333 333 334 334 334 334 333 333 332 332 332 332 331 331 332 331 330 329 328 327 326 327 329 330 330 330 330 330 330 330 331 332 332 332 332 331 331 331 331 330 330 330 329 329 330 329 329 329 328
334 334 334 334 334 335 335 335 334 333 334 333 333 334 333 332 332 333 333 333 333 332 332 332 332 332 331 331 332 331 331 329 328 328 327 327 328 329 330 331 330 329 329 330 330 331 331 331 331 331 331 331 331 330 329 329 329 329 330 329 328 329 329
332 332 332 332 332 333 334 334 334 333 333 333 333 334 334 333 331 330 332 332 332 332 332 332 332 332 331 331 331 331 331 330 329 329 328 326 327 327 328 330 330 329 329 329 329 330 331 331 331 331 331 331 331 331 330 329 329 329 329 329 327 328 329
332 331 332 332 333 334 334 334 334 333 332 332 332 332 333 333 329 328 331 332 332 331 331 331 331 331 331 331 331 331 331 330 329 329 328 327 327 326 327 329 330 330 330 329 328 329 330 331 331 330 330 331 331 331 330 329 329 328 329 329 327 328 329
331 331 332 332 333 334 334 334 333 332 332 331 330 331 331 331 329 327 328 329 331 331 330 330 330 330 330 331 332 331 331 329 328 328 327 327 327 327 328 329 328 329 330 330 329 330 330 330 331 331 330 330 331 331 331 330 329 329 329 329 328 328 329
328 329 330 331 332 333 333 333 333 332 331 330 330 330 330 330 330 328 326 326 328 329 329 329 329 329 330 331 333 332 331 330 329 328 328 327 328 328 328 329 327 326 328 330 331 330 330 330 331 331 330 330 330 330 331 331 329 328 329 330 329 329 329
326 327 327 329 330 331 332 332 332 331 331 331 331 330 329 329 329 329 328 326 326 327 329 329 329 330 331 331 333 333 332 331 329 328 328 329 329 328 328 328 325 324 326 329 330 330 329 330 331 331 330 329 330 331 331 331 330 328 329 330 330 329 329
324 326 327 328 329 330 330 331 331 332 331 331 330 330 329 329 328 328 328 327 326 327 329 329 329 330 331 332 332 331 330 330 329 328 328 329 329 329 328 327 326 326 327 329 329 329 329 329 330 331 330 329 330 331 331 331 331 330 329 330 330 329 329
321 322 324 326 327 328 329 329 330 330 330 330 330 330 330 329 329 328 327 327 327 328 329 329 329 329 330 331 332 331 330 330 330 329 329 329 330 329 327 327 327 328 328 329 329 329 329 329 329 330 330 329 329 330 331 331 331 331 330 330 329 329 329
320 320 320 321 323 325 326 327 328 328 329 330 330 330 330 330 329 329 328 327 328 328 328 329 329 329 330 331 331 330 330 330 330 330 330 330 330 329 327 327 327 328 328 329 329 329 329 329 329 330 329 329 329 329 330 330 330 330 330 329 329 329 329
319 318 318 318 319 320 321 322 324 326 327 329 329 330 330 330 330 330 330 329 328 328 327 327 327 328 330 330 329 330 330 330 331 331 330 331 330 329 329 328 327 328 328 329 329 328 329 329 329 330 329 330 330 329 329 329 330 329 329 329 329 329 329
318 317 317 317 318 318 319 319 320 322 323 325 328 329 330 330 330 330 330 330 329 329 328 328 328 329 330 329 329 329 330 331 332 332 331 331 330 329 329 328 328 328 328 328 328 328 328 328 329 329 329 329 330 330 330 330 330 329 329 329 329 329 329
316 316 317 317 316 317 318 318 319 320 320 321 323 326 328 329 330 330 330 330 330 329 329 330 330 330 331 330 329 329 329 330 331 331 332 330 330 329 329 328 328 328 328 327 326 327 327 328 329 329 329 328 328 329 330 330 330 329 329 329 329 329 329
315 316 316 316 315 315 316 316 317 318 319 320 320 321 323 325 328 329 329 329 329 329 329 328 329 330 330 331 330 329 329 330 330 330 331 331 330 330 329 329 328 327 327 326 326 327 327 328 329 329 329 328 328 330 330 330 330 329 328 329 329 329 328
314 314 314 314 314 314 314 314 314 315 316 318 319 320 320 321 323 326 328 328 328 328 328 327 327 328 329 329 330 330 329 330 330 329 330 330 330 330 329 329 328 327 327 327 327 327 327 328 328 329 329 328 328 330 331 330 329 328 327 328 328 328 329
313 313 313 313 313 313 312 312 313 313 314 315 316 318 319 320 320 322 325 327 328 328 328 328 327 328 329 328 329 329 329 329 328 329 329 330 330 330 329 329 329 329 328 328 328 327 327 327 328 328 328 327 327 330 330 329 328 328 328 328 329 329 329
312 312 312 312 312 312 312 312 312 311 312 313 314 315 317 318 319 320 322 324 326 327 328 328 329 329 329 328 329 329 329 329 328 329 329 329 329 330 329 329 330 330 330 329 327 327 327 327 327 327 328 327 327 329 330 328 328 329 328 328 329 329 329
311 311 311 311 311 311 311 311 311 311 311 312 312 313 314 315 316 318 319 322 324 326 327 327 328 329 329 329 329 329 330 330 329 329 329 330 330 329 329 329 330 330 330 329 328 327 327 328 328 328 328 328 328 330 330 328 327 329 330 329 328 329 329
310 310 310 310 310 309 309 309 310 310 310 311 311 312 312 313 314 315 317 319 321 323 325 326 327 328 328 328 328 329 330 329 329 329 330 330 330 329 329 329 329 330 330 329 328 328 329 328 328 329 329 329 328 329 330 328 327 328 329 329 328 328 328
309 309 309 309 308 308 308 308 309 309 310 310 310 311 312 312 312 313 314 316 318 321 323 324 326 327 327 327 328 329 329 328 328 328 329 329 329 329 328 328 329 329 330 328 326 328 329 329 328 328 329 328 326 327 329 327 327 328 329 328 328 327 327
309 308 308 308 308 308 307 307 308 308 308 308 309 310 311 312 312 312 313 314 316 319 321 322 324 325 326 326 327 328 329 329 328 328 328 329 329 329 328 327 328 328 329 328 326 327 329 329 328 328 328 327 325 327 328 327 327 328 328 328 327 327 326
308 308 308 308 307 307 307 307 307 307 307 307 307 309 310 311 311 311 312 313 314 316 319 321 323 324 324 324 325 327 328 329 328 328 328 328 328 327 327 327 327 327 329 329 327 326 328 329 328 328 329 327 326 328 328 327 328 328 328 327 327 327 327
307 307 307 307 307 307 306 306 306 306 306 306 306 307 307 308 309 310 311 311 312 313 315 318 320 322 322 323 324 325 327 328 329 328 328 328 328 328 327 327 327 327 328 330 329 328 328 328 328 329 329 327 326 327 328 327 328 329 328 327 327 327 327
307 307 307 306 306 306 306 305 305 305 305 304 304 305 305 306 307 308 309 310 310 311 312 314 316 318 320 321 323 324 326 327 328 328 328 329 329 328 327 326 326 325 325 328 329 329 328 327 328 328 329 328 327 328 328 328 328 329 328 327 326 326 326
306 306 306 306 306 306 305 305 304 304 304 304 304 304 304 304 304 305 307 308 309 309 310 311 313 315 318 320 322 324 325 326 327 328 328 328 328 327 327 327 327 326 325 325 327 329 328 327 328 328 328 328 329 329 329 329 329 328 328 326 326 325 325
305 305 305 305 305 305 305 304 303 303 303 303 303 303 303 302 303 303 305 306 307 307 308 310 311 313 315 318 320 322 323 324 326 327 328 328 327 327 327 327 326 325 324 325 326 328 328 328 328 329 329 329 329 329 328 328 328 328 327 326 326 326 326
305 305 305 305 304 304 304 304 303 303 303 303 302 302 302 302 302 302 303 304 305 306 307 309 311 312 313 315 317 319 322 323 325 326 327 328 328 327 327 327 326 324 324 325 326 327 328 327 328 328 329 329 329 329 328 328 327 327 327 326 326 326 326
304 304 304 304 304 304 303 303 303 303 303 302 302 302 302 302 302 301 302 302 302 303 305 307 310 311 312 314 316 318 319 321 323 325 326 326 327 327 327 327 326 326 325 326 327 327 326 326 327 328 328 327 327 327 327 327 327 326 326 326 326 326 325
304 304 303 303 303 303 303 302 302 303 302 302 302 301 301 301 301 301 301 301 301 301 302 304 308 310 311 312 314 316 318 320 321 323 324 325 325 326 326 326 327 326 326 326 327 327 326 325 326 327 327 326 326 327 327 326 325 325 325 326 326 326 325
303 303 303 303 303 303 302 302 302 302 302 302 302 301 300 300 300 300 301 301 300 300 301 302 305 308 310 311 312 314 316 318 320 321 322 323 324 325 326 326 326 326 326 325 325 326 327 326 325 325 326 326 326 326 326 325 325 325 326 326 326 325 325
303 303 302 302 302 302 302 301 301 301 302 302 302 301 300 300 300 300 301 301 301 300 300 301 303 305 308 309 310 312 313 314 317 318 320 321 322 323 325 326 326 325 324 324 325 327 327 325 324 325 327 327 326 325 325 325 324 324 324 325 325 325 324
302 302 302 302 302 302 301 301 301 301 301 301 301 300 300 300 300 299 300 300 300 300 300 300 301 302 305 307 308 309 310 311 312 314 316 318 320 321 323 325 326 325 324 324 326 327 326 324 324 326 327 325 324 323 323 322 320 320 321 322 323 324 324
302 302 301 301 301 301 301 300 300 300 300 300 300 300 300 300 299 299 299 299 300 300 300 300 300 301 302 304 306 307 309 309 309 310 312 314 317 319 321 322 323 324 325 325 326 326 326 325 325 326 324 323 321 320 319 318 318 320 322 323 323 324 323
302 302 301 301 301 301 301 300 300 300 300 300 300 300 299 299 299 299 299 299 299 299 300 300 300 301 301 302 303 305 306 307 307 308 309 311 313 314 315 316 317 320 324 326 325 325 326 325 324 324 323 322 320 318 317 317 319 321 322 321 321 321 320
302 302 301 301 301 300 300 300 299 299 299 299 300 299 299 299 299 299 298 299 299 298 299 299 300 300 300 301 301 302 303 305 306 306 307 308 308 308 310 311 312 314 320 324 324 325 325 324 322 323 323 321 319 318 318 319 319 319 319 318 317 317 316
302 302 301 301 301 301 300 300 299 299 299 299 299 299 299 299 299 299 298 298 298 298 298 298 299 299 300 300 300 301 301 302 304 305 305 305 306 306 307 308 309 311 315 320 322 323 322 322 321 321 320 319 318 317 318 318 317 317 316 316 315 314 313
Wind_Speed
7 9 10 11 12 13 14 14 13 14 15 16 17 18 18 19 19 20 22 24 25 25 25 26 27 27 29 30 29 28 27 27 26 25 25 25 27 28 28 28 25 20 16 13 13 13 13 15 18 21 20 19 19 18 17 18 17 17 16 15 14 14 13
7 9 10 10 11 12 14 14 14 15 17 17 18 19 19 19 20 21 23 25 25 26 26 27 27 27 28 30 30 30 29 26 25 25 24 25 26 26 25 27 26 23 21 17 14 15 15 14 15 19 21 20 19 19 19 18 18 19 18 16 16 14 13
10 11 12 12 12 12 13 15 16 17 17 17 17 18 20 20 21 22 23 24 24 24 24 25 26 27 29 30 29 30 30 27 25 25 25 25 26 24 22 24 25 25 26 22 18 17 18 16 13 16 19 21 21 20 20 20 21 21 18 16 16 14 14
11 12 13 13 12 11 13 15 16 18 17 17 18 19 20 20 20 22 20 19 20 21 21 22 24 25 27 28 29 30 31 29 27 26 26 25 25 25 24 24 24 25 27 26 23 20 20 18 16 16 18 20 21 20 20 21 21 22 19 17 16 15 15
10 10 11 11 11 11 13 15 16 17 18 18 19 20 21 20 20 21 19 17 18 19 20 21 22 22 23 25 28 30 30 30 29 27 27 27 28 29 28 26 25 24 24 26 25 23 22 20 18 18 18 19 21 19 19 20 21 22 20 18 17 16 16
9 9 10 11 11 11 13 15 16 18 20 20 20 20 20 20 20 20 20 19 18 19 19 21 21 21 21 23 26 27 27 28 29 28 28 28 29 30 29 29 28 26 24 24 26 25 24 22 20 18 17 19 22 20 18 19 21 23 21 18 18 17 17
10 10 11 11 11 11 12 14 16 18 20 22 20 19 18 19 20 20 20 21 20 20 19 20 22 21 20 22 25 25 25 27 28 28 29 28 29 29 28 29 29 29 26 26 27 26 25 24 22 20 17 18 21 20 17 17 20 23 22 19 18 18 18
11 12 12 11 11 11 11 12 14 17 19 19 19 19 19 20 20 19 20 21 22 22 21 20 21 21 20 21 25 26 26 26 27 27 28 29 30 29 28 29 29 29 28 27 27 26 26 25 23 21 19 18 19 18 17 16 19 23 23 19 19 20 20
12 12 12 12 12 13 13 12 12 15 17 17 18 19 18 18 20 20 20 21 22 23 22 21 22 22 21 22 24 27 27 26 26 26 27 30 31 30 29 29 29 29 29 28 27 26 26 26 24 23 20 19 19 19 18 17 19 21 22 21 21 22 21
15 14 13 14 15 16 17 15 14 14 15 16 17 17 17 17 18 19 21 22 22 23 23 22 23 23 23 24 26 27 27 26 27 27 27 29 31 32 31 30 30 30 29 29 28 27 27 26 25 24 22 20 21 21 21 20 21 22 23 25 24 23 24
18 18 17 17 17 17 18 18 18 18 17 16 16 16 16 17 18 19 20 22 22 23 22 22 23 23 23 26 27 27 27 27 28 29 28 28 30 31 30 30 30 30 29 29 28 27 27 26 24 23 22 21 20 21 21 21 21 20 23 26 24 23 25
18 20 20 20 18 18 19 19 19 19 19 19 18 17 16 16 18 19 20 22 22 23 23 21 22 23 23 24 26 25 25 25 27 29 28 28 30 30 30 29 29 29 29 28 28 28 27 26 24 24 23 22 22 22 20 20 20 19 21 24 23 23 25
17 19 21 23 21 20 20 20 19 19 18 19 19 19 18 16 17 19 21 22 22 24 24 21 21 23 22 21 23 24 23 24 27 29 28 28 30 30 30 29 29 29 29 29 28 28 28 27 26 26 26 24 24 22 19 20 20 20 22 25 25 25 24
16 18 21 23 23 22 22 22 21 20 19 19 19 20 20 19 19 19 21 22 22 24 25 24 23 23 22 21 21 23 23 25 27 28 28 28 29 29 29 29 29 29 29 30 29 28 28 27 26 27 27 26 24 22 22 23 22 20 22 25 27 26 24
18 19 20 21 22 23 22 22 23 22 21 21 21 20 20 21 21 20 20 22 23 24 25 26 24 23 23 23 22 23 24 26 27 28 28 28 29 29 29 28 29 30 30 30 30 29 28 28 27 27 28 28 26 25 26 27 25 22 21 22 26 27 25
20 21 21 22 23 23 23 23 24 24 23 22 22 22 21 20 19 19 19 20 22 22 23 25 24 24 25 24 24 24 24 25 26 27 28 28 27 28 28 28 28 29 29 30 30 29 29 29 29 28 29 30 29 27 27 28 27 26 23 21 23 25 26
20 22 23 23 24 24 25 25 25 25 25 23 22 22 22 22 21 18 18 19 20 20 21 22 24 24 24 24 25 25 25 25 26 25 27 29 28 26 27 28 28 28 29 30 29 28 29 30 31 31 31 30 30 29 28 27 27 26 25 23 23 26 28
21 23 24 25 25 24 25 26 26 27 27 25 24 22 22 24 24 21 18 18 20 20 20 23 24 24 24 24 25 25 24 25 26 26 27 29 29 29 30 30 28 28 28 29 28 28 29 30 31 32 31 30 30 30 29 29 27 25 25 24 24 26 29
23 23 24 25 25 25 25 26 27 27 27 27 27 25 24 24 26 25 21 18 19 19 20 22 23 23 23 24 25 26 25 24 25 25 27 29 28 29 31 32 30 28 28 28 28 28 29 30 31 31 30 29 28 27 27 28 28 26 25 25 25 27 28
24 24 24 24 25 25 25 26 27 28 27 27 28 28 27 26 25 26 24 20 19 19 19 20 21 21 21 21 21 23 25 26 25 24 26 27 26 26 28 30 30 29 28 27 27 28 30 31 31 32 31 29 28 27 27 29 29 28 26 25 25 23 24
23 24 25 25 25 26 26 26 27 27 27 28 29 29 28 28 27 26 25 22 20 20 20 21 21 22 22 22 21 20 21 23 25 24 24 24 23 24 26 27 29 30 29 27 26 29 32 32 31 31 30 29 28 27 28 30 31 30 27 26 25 22 19
22 24 25 26 27 27 26 27 27 27 28 29 30 30 29 28 28 27 25 22 20 19 20 23 24 24 24 24 23 22 20 21 23 25 26 26 25 25 26 26 27 29 29 27 26 28 31 32 31 30 29 29 29 27 28 30 31 30 28 26 26 26 23
23 24 25 26 27 27 27 27 28 28 28 29 31 32 31 31 31 30 28 25 22 19 19 23 25 26 27 27 25 25 24 23 24 25 27 27 26 26 26 25 26 28 29 28 27 28 30 32 31 29 29 30 30 28 29 29 29 28 27 28 27 28 28
23 24 25 25 26 27 27 27 28 28 29 30 31 32 33 34 35 35 32 30 26 21 20 22 25 27 28 29 28 27 26 25 25 26 27 26 26 24 22 23 24 26 27 28 28 29 30 31 30 28 29 30 30 29 29 29 28 25 25 29 29 27 29
23 24 25 26 26 26 26 27 28 28 29 30 31 32 32 33 36 38 37 35 31 27 24 23 24 26 27 28 28 27 26 26 27 28 27 25 25 25 23 23 23 23 24 27 29 30 31 31 29 28 30 30 30 30 29 29 28 26 24 27 28 27 27
24 25 25 26 26 26 27 28 29 30 29 28 30 32 32 32 34 38 39 38 36 33 30 27 25 25 26 27 27 27 25 25 26 28 28 25 24 25 25 25 25 25 24 25 27 30 31 30 28 29 31 32 31 31 29 28 28 26 24 25 27 27 25
24 25 26 27 27 27 28 29 31 32 30 28 29 31 32 32 33 35 38 39 38 37 36 33 29 25 25 26 27 27 26 25 23 25 28 27 25 25 25 24 25 24 24 25 26 28 29 28 28 30 32 31 31 31 29 27 25 25 23 23 25 26 24
25 26 26 27 28 29 29 29 31 33 32 31 31 31 31 31 31 33 36 38 38 39 39 37 34 29 25 24 25 27 28 27 25 24 27 27 26 26 25 23 24 24 25 27 27 26 27 27 28 30 30 28 27 28 27 25 23 23 23 22 23 25 23
25 26 26 27 28 30 30 29 29 31 32 33 33 32 30 31 31 32 35 37 38 39 40 39 37 36 31 25 22 23 25 26 26 26 27 26 25 26 25 24 25 24 24 27 28 26 25 25 26 28 28 27 25 25 26 25 24 23 22 23 23 21 21
24 25 26 27 28 29 30 30 29 29 30 32 34 34 33 31 31 31 33 35 36 37 39 40 38 38 36 30 22 19 19 20 22 24 26 26 26 26 24 24 26 26 25 25 26 27 25 24 26 26 25 26 27 27 27 26 25 24 23 23 23 20 20
23 24 25 26 27 28 30 30 29 28 27 29 32 34 34 32 31 32 31 31 32 34 37 39 39 38 38 35 28 20 16 15 16 18 20 21 23 24 24 25 27 27 26 25 25 27 27 25 25 26 26 26 26 26 27 26 25 25 25 24 23 21 21
23 24 25 26 26 27 28 30 30 28 26 27 30 32 33 32 32 31 30 30 31 34 36 38 39 39 39 38 34 28 21 16 13 11 11 12 15 18 22 26 27 26 26 24 23 25 26 24 25 28 29 28 24 23 24 23 21 22 23 22 22 20 19
22 23 25 25 25 26 27 28 30 30 27 26 27 29 31 31 30 30 31 31 32 34 36 38 38 38 38 37 36 33 28 23 18 13 8 7 9 13 19 23 26 27 27 24 23 24 25 25 27 28 28 26 23 21 21 19 17 17 17 19 21 20 18
20 21 23 25 25 25 26 27 28 29 28 27 27 28 29 30 30 30 31 32 32 33 34 35 36 37 37 36 35 33 32 29 24 19 13 9 8 10 13 16 19 23 25 25 24 25 26 27 27 25 23 23 21 19 18 17 16 17 18 18 20 19 18
19 19 21 23 24 25 24 25 28 29 28 27 27 27 28 29 31 30 31 33 34 34 33 32 32 33 35 35 34 32 31 29 26 22 17 13 8 5 6 5 6 12 20 24 23 23 26 27 26 25 24 24 21 18 17 17 17 18 18 18 18 16 15
18 19 20 21 24 24 23 24 27 29 29 27 26 27 27 28 30 30 31 33 35 35 34 33 32 31 31 31 32 31 30 28 26 25 22 17 13 10 7 5 4 4 13 21 22 22 24 25 25 26 26 23 19 17 18 18 19 19 19 18 18 17 15
16 18 21 22 23 23 23 24 28 29 28 27 26 26 26 26 27 29 31 33 35 36 36 35 34 33 32 31 29 29 28 27 26 24 23 21 18 15 12 9 7 9 11 14 17 19 22 24 25 26 24 20 18 20 22 22 22 22 22 21 19 18 17
Wind_Direction
306 304 302 302 302 303 302 300 299 298 296 295 293 292 290 287 282 279 278 277 276 276 274 267 262 257 252 248 243 238 233 232 235 241 244 239 233 231 229 228 223 218 224 222 214 214 216 220 220 219 219 221 222 219 213 214 211 207 211 217 217 220 228
289 287 289 292 294 296 297 297 296 296 295 293 296 296 294 291 283 280 280 280 280 281 281 276 269 262 254 250 245 239 234 233 235 238 241 237 233 233 232 232 228 222 227 228 218 214 213 215 216 218 218 217 219 218 213 213 209 207 209 213 218 219 221
290 288 290 289 286 289 295 298 299 298 295 293 293 293 292 292 288 284 281 281 283 284 283 279 272 266 259 253 247 240 234 234 235 235 236 234 233 234 233 234 233 228 227 225 222 220 216 216 218 220 219 216 215 213 211 212 209 209 210 210 217 216 212
299 299 303 304 300 301 302 301 302 302 299 295 291 290 290 292 292 290 285 280 283 285 283 278 272 269 263 254 248 242 234 233 234 233 234 232 231 235 234 235 239 236 230 226 225 224 222 223 224 224 223 220 220 218 214 212 208 210 211 209 214 213 206
294 298 305 308 307 309 306 302 302 302 302 299 295 293 291 292 297 295 289 284 285 286 286 284 277 271 265 255 247 242 235 232 234 234 235 233 232 236 237 236 240 239 235 231 229 228 228 229 229 229 226 219 218 221 220 212 205 207 210 206 207 211 210
280 285 293 295 297 305 307 306 306 304 305 304 298 292 289 291 298 298 293 290 288 285 288 289 282 274 267 253 241 238 234 233 235 236 239 239 237 237 238 237 237 235 235 234 230 230 230 229 228 229 228 220 214 210 214 214 205 204 209 209 204 207 212
287 287 289 284 287 301 307 309 311 308 307 307 302 295 292 294 297 298 297 295 291 287 286 288 282 276 267 248 236 236 236 235 236 237 240 242 241 239 237 236 236 235 236 233 230 231 229 223 222 224 221 221 217 206 205 212 207 204 207 206 201 203 209
305 302 300 288 285 293 300 310 315 312 311 310 308 302 297 298 298 297 299 298 295 289 285 282 277 270 264 247 235 237 239 237 237 239 240 242 242 239 235 236 237 238 237 233 230 231 228 221 219 221 217 217 218 207 204 208 206 205 204 203 204 207 207
329 317 311 300 288 283 289 302 309 308 310 309 309 309 305 304 301 297 297 298 298 294 288 284 279 271 263 251 241 239 240 239 238 241 242 242 240 237 234 235 237 238 237 234 234 233 229 223 220 218 215 215 214 204 197 200 206 206 201 199 204 209 207
345 331 322 312 299 290 290 293 292 295 303 306 308 310 310 309 305 300 298 298 299 296 291 289 288 283 269 256 249 246 245 245 244 244 243 239 237 235 233 232 235 238 235 232 233 231 227 225 222 219 214 213 212 205 198 199 207 210 203 199 202 204 204
346 335 329 320 312 308 302 297 293 292 297 303 307 308 308 309 306 304 302 300 298 295 294 295 294 291 278 261 254 250 248 249 248 248 244 237 233 233 232 231 234 236 235 232 232 230 228 227 225 221 216 214 214 214 211 205 207 213 207 201 200 201 204
342 337 339 334 328 324 318 313 309 303 299 298 301 305 308 310 308 305 304 302 298 296 298 299 297 296 288 272 263 258 253 251 250 251 248 238 232 232 231 232 235 235 234 234 234 231 229 227 223 217 216 219 221 221 220 211 206 209 208 202 199 204 210
347 347 350 344 341 340 334 330 327 323 313 303 298 297 299 305 309 309 306 303 302 300 300 297 292 294 292 279 273 272 266 258 253 253 251 241 234 234 234 235 237 236 234 234 234 232 229 226 223 219 217 222 226 226 224 216 207 204 206 204 202 205 211
354 357 356 348 347 351 347 342 338 335 328 317 309 300 293 292 297 306 311 308 306 306 304 299 292 290 291 284 278 278 273 264 257 253 250 244 238 236 237 238 239 236 234 233 233 233 231 226 224 224 223 224 226 227 225 221 215 208 204 204 204 207 209
0 359 356 353 353 354 351 347 341 338 335 330 325 317 307 296 288 293 305 309 307 306 306 305 299 294 292 288 283 281 276 269 263 255 248 244 240 238 238 239 238 235 234 235 235 235 232 227 225 225 225 225 224 222 223 223 223 219 211 206 208 209 207
2 358 356 358 355 352 352 351 347 344 340 336 332 329 324 314 298 288 294 306 308 305 305 305 302 296 293 290 286 282 276 273 270 260 250 244 241 238 237 238 238 236 234 234 235 236 233 228 226 224 223 224 224 222 223 225 225 223 219 212 209 209 205
1 359 358 359 356 354 356 354 351 348 345 340 336 332 329 323 313 299 290 299 307 306 303 303 300 296 294 292 287 281 276 275 275 268 258 251 247 242 240 241 240 238 236 236 237 237 234 230 228 226 226 227 228 226 224 224 224 224 222 215 209 208 206
2 360 360 359 356 357 359 355 352 352 349 345 341 336 331 325 321 314 298 292 300 303 300 298 299 299 298 294 289 283 279 276 276 273 264 256 251 246 243 244 242 240 240 241 240 239 236 232 230 230 230 230 230 229 225 224 225 225 223 219 213 211 211
3 1 2 360 356 359 0 355 355 356 353 350 348 343 338 331 326 323 315 299 293 296 299 300 301 301 302 300 294 289 286 281 277 273 264 257 254 249 245 244 242 239 240 241 240 238 236 235 233 231 230 228 226 226 225 226 226 225 222 220 215 211 209
4 2 2 360 358 1 1 358 359 1 358 355 354 351 346 340 333 329 326 317 299 291 298 307 303 295 294 297 295 292 291 288 283 275 264 259 256 252 248 246 243 239 237 239 240 238 235 236 234 230 228 227 225 228 231 228 225 223 222 221 218 210 203
6 3 3 2 2 3 3 2 3 4 4 2 0 358 354 348 342 335 331 326 312 295 293 299 297 292 293 294 291 289 289 287 284 276 264 258 254 253 254 252 248 244 238 236 240 240 236 233 231 228 228 228 228 231 233 230 225 225 225 225 222 217 210
7 4 6 5 2 2 4 5 5 7 8 7 5 6 4 358 352 345 338 332 321 305 293 290 290 292 297 298 293 287 284 282 279 273 263 256 253 255 256 252 247 244 238 234 237 241 237 232 230 231 231 228 226 225 225 225 226 225 224 222 219 217 215
7 6 8 6 2 2 3 3 5 7 9 8 7 9 10 10 6 0 353 345 333 319 304 293 287 285 289 295 295 287 281 279 277 272 265 261 258 257 256 252 247 243 238 235 236 236 232 230 230 231 228 225 223 222 219 220 224 226 222 218 216 216 212
9 9 8 6 5 4 3 2 3 5 7 8 7 7 10 13 14 12 7 0 350 337 323 305 292 286 284 288 292 289 282 277 273 268 264 262 261 257 254 252 248 243 239 239 239 235 231 230 231 228 224 225 226 225 223 223 225 228 224 216 216 217 212
11 10 8 7 6 5 5 4 3 4 7 6 3 4 7 9 11 13 13 10 5 356 343 325 308 298 291 286 285 286 284 276 270 267 263 259 258 259 258 251 243 239 240 242 242 238 233 230 230 227 224 226 228 227 228 229 227 226 224 219 218 218 214
12 11 9 8 6 5 6 7 6 7 7 4 360 1 5 4 5 9 12 12 11 6 358 346 328 313 303 293 286 283 282 276 268 264 262 259 257 260 258 248 239 237 241 243 242 239 235 230 227 226 224 225 228 228 227 228 229 231 231 226 225 224 219
14 12 11 9 8 7 6 5 6 7 8 6 1 359 2 2 0 2 7 10 11 10 6 359 349 331 314 303 294 286 282 279 271 263 260 259 259 263 261 249 240 241 244 243 239 238 238 234 228 225 224 224 226 227 223 220 224 230 232 229 230 229 223
15 14 12 10 9 9 8 5 4 5 7 6 3 0 2 3 359 357 1 6 7 8 8 5 2 353 334 314 302 294 287 282 276 268 262 259 256 258 260 252 243 242 243 242 239 235 236 238 233 228 227 227 224 221 220 219 221 226 229 230 230 225 219
15 15 14 12 9 9 10 7 4 5 5 4 3 3 5 6 2 357 359 3 5 7 7 5 5 4 355 336 314 302 295 289 282 275 270 264 256 253 255 254 251 246 241 239 237 234 234 238 237 232 231 232 229 224 221 220 222 226 228 229 230 224 220
16 15 14 14 11 9 8 8 7 7 6 4 4 5 6 7 7 3 1 3 5 7 8 5 4 6 5 357 339 317 307 301 292 282 277 271 260 254 252 250 250 250 245 238 234 232 231 232 234 233 233 234 233 229 225 222 223 226 227 228 230 226 220
19 16 15 16 14 10 8 8 9 11 10 6 3 4 6 7 9 9 7 6 7 9 10 8 6 7 9 7 0 349 337 325 308 293 287 282 270 259 252 246 243 244 243 238 232 227 222 222 227 229 228 227 223 219 220 221 221 222 222 225 230 225 214
20 17 16 16 15 13 10 8 8 11 14 11 4 4 7 7 7 10 13 13 14 15 14 12 11 10 11 12 10 6 1 353 337 316 296 285 273 260 253 249 243 239 237 234 228 219 213 218 227 226 221 218 211 207 211 214 215 217 217 221 227 225 213
19 19 19 18 16 14 13 11 8 8 12 13 8 6 8 8 7 12 17 16 16 17 16 16 16 14 13 14 15 13 10 6 358 345 317 274 253 240 239 239 234 232 233 229 220 210 208 217 225 221 215 211 204 201 207 209 211 216 218 219 223 225 221
19 19 18 18 16 14 12 12 12 9 8 11 11 10 12 11 9 12 18 17 15 14 13 13 15 17 17 16 17 18 17 14 7 353 334 305 269 236 228 224 217 217 221 219 214 212 211 213 214 210 205 203 198 197 203 205 204 206 209 213 217 218 218
16 15 15 17 15 12 10 11 13 12 8 9 11 11 13 15 14 15 21 23 21 18 14 10 11 14 17 18 19 21 21 20 15 5 352 336 321 296 267 243 202 203 211 211 211 213 208 201 200 200 198 195 193 194 199 198 196 195 195 199 202 202 205
15 15 17 17 14 13 10 6 8 10 10 10 11 10 11 13 15 17 20 22 23 22 18 16 13 12 13 15 17 20 23 23 21 19 16 12 8 7 359 1 63 146 201 207 206 206 200 190 187 189 191 191 189 189 188 183 181 181 181 184 188 189 193
14 12 15 16 15 15 10 3 5 10 12 13 12 10 8 9 11 15 18 18 18 18 17 17 16 15 14 13 13 16 19 23 24 24 25 25 23 23 23 23 49 97 145 180 194 194 189 185 181 177 178 181 179 178 178 176 176 177 177 178 179 177 176